Regional Weather Roundup
Issued by NWS

Home | Current Version | Previous Version | Graphics & Text | Print | Product List | Glossary On
Versions: 1 2 3 4 5 6 7 8 9 10 11 12 13 14 15 16 17 18 19 20 21 22 23 24 25 26 27 28 29 30 31 32 33 34 35 36 37 38 39 40 41 42 43 44 45 46 47 48 49 50
000
ASUS45 KBOI 060310
RWRID

IDAHO REGIONAL WEATHER ROUNDUP
NATIONAL WEATHER SERVICE BOISE ID
800 PM MST MON DEC 05 2016

NOTE: "FAIR" INDICATES FEW OR NO CLOUDS BELOW 12000 FEET
WITH NO SIGNIFICANT WEATHER AND/OR OBSTRUCTIONS TO VISIBILITY

IDZ012-014-060400-
SOUTHWEST IDAHO


CITY           SKY/WX    TMP DP  RH WIND       PRES   REMARKS
BOISE          CLEAR     24  16  71 SE8       30.03F WCI  15
CALDWELL       CLEAR     26  18  71 E10       30.04F WCI  16
MOUNTAIN HOME  CLEAR     22  19  88 SE6       30.04S WCI  14
$$

IDZ016-017-060400-
SOUTHCENTRAL IDAHO


CITY           SKY/WX    TMP DP  RH WIND       PRES   REMARKS
BURLEY         CLEAR     14  10  84 CALM      30.01S
JEROME         CLEAR     19   9  65 CALM      30.02S
TWIN FALLS     CLEAR      9   4  80 SE6       30.01S WCI  -1
$$

IDZ019>023-060400-
SOUTHEAST IDAHO


CITY           SKY/WX    TMP DP  RH WIND       PRES   REMARKS
IDAHO FALLS    CLEAR     19   9  65 S13       30.00R WCI   6
POCATELLO      CLEAR     14   5  67 SW7       30.02S WCI   4
REXBURG        CLEAR     18   9  68 S10       29.98R WCI   6
$$

IDZ006-010-011-018-031-032-060400-
CENTRAL IDAHO MOUNTAINS


CITY           SKY/WX    TMP DP  RH WIND       PRES   REMARKS
MCCALL         MOCLDY    13   8  81 CALM      29.91S
HAILEY         CLEAR      9   3  78 NW8       29.98R WCI  -4
STANLEY          N/A     -1  -7  75 S5        29.90S WCI -11
SALMON         CLOUDY     9   1  72 SE3       29.99S
CHALLIS        CLEAR     11   3  70 CALM      29.95R
$$

IDZ002-004-006-007-026-060400-
NORTHERN IDAHO


CITY           SKY/WX    TMP DP  RH WIND       PRES   REMARKS
LEWISTON       CLOUDY    31  23  72 CALM      30.01F
LOWELL           N/A     29  27  92 CALM      30.09S
COEUR D`ALENE  MOCLDY    26  24  92 N6        30.01S WCI  19
MULLAN PASS    CLOUDY    12  10  92 S5        29.83S WCI   4
$$



USA.gov is the U.S. government's official web portal to all federal, state and local government web resources and services.